Location: ???????
(55.4362°N, 38.1183°E)
Time: 17:31:59
(UTC+00:00)

Cosmos 1932 - Pass Details

Date: 01 November 2021
Orbit: 943 x 987 km, 65.0° (Epoch: 28 November)

Event Time Altitude Azimuth Distance (km) Brightness Sun altitude
Rises 15:16:02 0° 312° (NW) 3,621 8.1 -12.7°
Reaches altitude 10° 15:18:51 10° 302° (WNW) 2,675 7.6 -13.1°
Maximum altitude 15:24:09 30° 244° (WSW) 1,624 6.4 -13.8°
Drops below altitude 10° 15:29:29 10° 185° (S) 2,681 6.9 -14.6°
Sets 15:32:20 0° 175° (S) 3,630 7.5 -15.0°
